{"data":{"norad_id":59015,"epoch":"2026-09-20T16:48:22.533120Z","epoch_age_seconds":138975,"freshness":"FRESH","line1":"1 59015U 24036T   26263.70026080  .00000503  00000+0  27979-4 0  9992","line2":"2 59015  53.1589 252.0790 0001202  82.5003 277.6136 15.31700916145185","mean_motion":15.31700916,"eccentricity":0.0001202,"inclination_deg":53.1589,"raan_deg":252.079,"arg_perigee_deg":82.5003,"mean_anomaly_deg":277.6136,"bstar":2.7979e-5,"rev_number":14518,"period_min":94.013131738572,"perigee_km":469.91402999206,"apogee_km":471.56049936529,"semimajor_km":6848.8742646787,"source":"CELESTRAK","updated_at":"2026-09-21T09:00:34.026689Z"}}